Year,Month,Day,Hour,Minute,Value (Times are PST for temperature in C)
2021,04,12,00,00,3.20
2021,04,12,00,01,3.10
2021,04,12,00,02,3.10
2021,04,12,00,03,3.10
2021,04,12,00,04,3.10
2021,04,12,00,05,3.10
2021,04,12,00,06,3.10
2021,04,12,00,07,3.10
2021,04,12,00,08,3.00
2021,04,12,00,09,3.00
2021,04,12,00,10,3.00
2021,04,12,00,11,2.90
2021,04,12,00,12,2.90
2021,04,12,00,13,2.90
2021,04,12,00,14,2.90
2021,04,12,00,15,2.90
2021,04,12,00,16,2.90
2021,04,12,00,17,2.90
2021,04,12,00,18,2.90
2021,04,12,00,19,2.90
2021,04,12,00,20,2.90
2021,04,12,00,21,2.90
2021,04,12,00,22,2.90
2021,04,12,00,23,2.90
2021,04,12,00,24,2.90
2021,04,12,00,25,2.90
2021,04,12,00,26,2.90
2021,04,12,00,27,2.90
2021,04,12,00,28,2.90
2021,04,12,00,29,2.90
2021,04,12,00,30,2.90
2021,04,12,00,31,2.80
2021,04,12,00,32,2.80
2021,04,12,00,33,2.80
2021,04,12,00,34,2.80
2021,04,12,00,35,2.80
2021,04,12,00,36,2.80
2021,04,12,00,37,2.70
2021,04,12,00,38,2.70
2021,04,12,00,39,2.60
2021,04,12,00,40,2.60
2021,04,12,00,41,2.50
2021,04,12,00,42,2.50
2021,04,12,00,43,2.40
2021,04,12,00,44,2.40
2021,04,12,00,45,2.40
2021,04,12,00,46,2.30
2021,04,12,00,47,2.30
2021,04,12,00,48,2.30
2021,04,12,00,49,2.30
2021,04,12,00,50,2.30
2021,04,12,00,51,2.30
2021,04,12,00,52,2.30
2021,04,12,00,53,2.30
2021,04,12,00,54,2.30
2021,04,12,00,55,2.30
2021,04,12,00,56,2.20
2021,04,12,00,57,2.30
2021,04,12,00,58,2.20
2021,04,12,00,59,2.20
2021,04,12,01,00,2.20
2021,04,12,01,01,2.20
2021,04,12,01,02,2.20
2021,04,12,01,03,2.20
2021,04,12,01,04,2.20
2021,04,12,01,05,2.10
2021,04,12,01,06,2.10
2021,04,12,01,07,2.10
2021,04,12,01,08,2.10
2021,04,12,01,09,2.10
2021,04,12,01,10,2.10
2021,04,12,01,11,2.10
2021,04,12,01,12,2.00
2021,04,12,01,13,2.00
2021,04,12,01,14,2.00
2021,04,12,01,15,1.90
2021,04,12,01,16,1.90
2021,04,12,01,17,1.90
2021,04,12,01,18,1.90
2021,04,12,01,19,1.90
2021,04,12,01,20,1.80
2021,04,12,01,21,1.80
2021,04,12,01,22,1.80
2021,04,12,01,23,1.80
2021,04,12,01,24,1.80
2021,04,12,01,25,1.70
2021,04,12,01,26,1.70
2021,04,12,01,27,1.70
2021,04,12,01,28,1.70
2021,04,12,01,29,1.70
2021,04,12,01,30,1.70
2021,04,12,01,31,1.70
2021,04,12,01,32,1.70
2021,04,12,01,33,1.70
2021,04,12,01,34,1.70
2021,04,12,01,35,1.60
2021,04,12,01,36,1.60
2021,04,12,01,37,1.60
2021,04,12,01,38,1.60
2021,04,12,01,39,1.60
2021,04,12,01,40,1.60
2021,04,12,01,41,1.60
2021,04,12,01,42,1.60
2021,04,12,01,43,1.50
2021,04,12,01,44,1.50
2021,04,12,01,45,1.50
2021,04,12,01,46,1.50
2021,04,12,01,47,1.50
2021,04,12,01,48,1.50
2021,04,12,01,49,1.50
2021,04,12,01,50,1.50
2021,04,12,01,51,1.50
2021,04,12,01,52,1.50
2021,04,12,01,53,1.50
2021,04,12,01,54,1.50
2021,04,12,01,55,1.50
2021,04,12,01,56,1.50
2021,04,12,01,57,1.50
2021,04,12,01,58,1.50
2021,04,12,01,59,1.50
2021,04,12,02,00,1.50
2021,04,12,02,01,1.50
2021,04,12,02,02,1.40
2021,04,12,02,03,1.40
2021,04,12,02,04,1.40
2021,04,12,02,05,1.40
2021,04,12,02,06,1.40
2021,04,12,02,07,1.40
2021,04,12,02,08,1.40
2021,04,12,02,09,1.40
2021,04,12,02,10,1.30
2021,04,12,02,11,1.30
2021,04,12,02,12,1.30
2021,04,12,02,13,1.30
2021,04,12,02,14,1.30
2021,04,12,02,15,1.30
2021,04,12,02,16,1.30
2021,04,12,02,17,1.30
2021,04,12,02,18,1.30
2021,04,12,02,19,1.20
2021,04,12,02,20,1.20
2021,04,12,02,21,1.20
2021,04,12,02,22,1.20
2021,04,12,02,23,1.20
2021,04,12,02,24,1.30
2021,04,12,02,25,1.30
2021,04,12,02,26,1.30
2021,04,12,02,27,1.30
2021,04,12,02,28,1.30
2021,04,12,02,29,1.30
2021,04,12,02,30,1.30
2021,04,12,02,31,1.30
2021,04,12,02,32,1.30
2021,04,12,02,33,1.30
2021,04,12,02,34,1.30
2021,04,12,02,35,1.30
2021,04,12,02,36,1.30
2021,04,12,02,37,1.30
2021,04,12,02,38,1.30
2021,04,12,02,39,1.30
2021,04,12,02,40,1.30
2021,04,12,02,41,1.30
2021,04,12,02,42,1.30
2021,04,12,02,43,1.20
2021,04,12,02,44,1.30
2021,04,12,02,45,1.30
2021,04,12,02,46,1.30
2021,04,12,02,47,1.30
2021,04,12,02,48,1.30
2021,04,12,02,49,1.20
2021,04,12,02,50,1.20
2021,04,12,02,51,1.20
2021,04,12,02,52,1.10
2021,04,12,02,53,1.10
2021,04,12,02,54,1.10
2021,04,12,02,55,1.00
2021,04,12,02,56,1.00
2021,04,12,02,57,1.00
2021,04,12,02,58,1.00
2021,04,12,02,59,0.90
2021,04,12,03,00,0.90
2021,04,12,03,01,0.90
2021,04,12,03,02,1.00
2021,04,12,03,03,1.00
2021,04,12,03,04,1.00
2021,04,12,03,05,0.90
2021,04,12,03,06,0.90
2021,04,12,03,07,0.90
2021,04,12,03,08,0.90
2021,04,12,03,09,0.90
2021,04,12,03,10,0.90
2021,04,12,03,11,0.90
2021,04,12,03,12,0.90
2021,04,12,03,13,0.90
2021,04,12,03,14,0.90
2021,04,12,03,15,0.90
2021,04,12,03,16,0.90
2021,04,12,03,17,0.90
2021,04,12,03,18,0.90
2021,04,12,03,19,0.90
2021,04,12,03,20,0.90
2021,04,12,03,21,0.90
2021,04,12,03,22,0.90
2021,04,12,03,23,0.90
2021,04,12,03,24,0.90
2021,04,12,03,25,0.90
2021,04,12,03,26,0.90
2021,04,12,03,27,0.90
2021,04,12,03,28,0.90
2021,04,12,03,29,0.90
2021,04,12,03,30,0.90
2021,04,12,03,31,0.90
2021,04,12,03,32,0.90
2021,04,12,03,33,0.90
2021,04,12,03,34,0.90
2021,04,12,03,35,0.90
2021,04,12,03,36,0.80
2021,04,12,03,37,0.80
2021,04,12,03,38,0.80
2021,04,12,03,39,0.80
2021,04,12,03,40,0.80
2021,04,12,03,41,0.80
2021,04,12,03,42,0.70
2021,04,12,03,43,0.70
2021,04,12,03,44,0.70
2021,04,12,03,45,0.70
2021,04,12,03,46,0.70
2021,04,12,03,47,0.70
2021,04,12,03,48,0.70
2021,04,12,03,49,0.70
2021,04,12,03,50,0.70
2021,04,12,03,51,0.70
2021,04,12,03,52,0.60
2021,04,12,03,53,0.60
2021,04,12,03,54,0.60
2021,04,12,03,55,0.60
2021,04,12,03,56,0.50
2021,04,12,03,57,0.50
2021,04,12,03,58,0.60
2021,04,12,03,59,0.60
2021,04,12,04,00,0.60
2021,04,12,04,01,0.60
2021,04,12,04,02,0.60
2021,04,12,04,03,0.60
2021,04,12,04,04,0.60
2021,04,12,04,05,0.60
2021,04,12,04,06,0.60
2021,04,12,04,07,0.60
2021,04,12,04,08,0.60
2021,04,12,04,09,0.60
2021,04,12,04,10,0.60
2021,04,12,04,11,0.60
2021,04,12,04,12,0.60
2021,04,12,04,13,0.50
2021,04,12,04,14,0.50
2021,04,12,04,15,0.50
2021,04,12,04,16,0.50
2021,04,12,04,17,0.40
2021,04,12,04,18,0.40
2021,04,12,04,19,0.40
2021,04,12,04,20,0.40
2021,04,12,04,21,0.40
2021,04,12,04,22,0.40
2021,04,12,04,23,0.30
2021,04,12,04,24,0.30
2021,04,12,04,25,0.40
2021,04,12,04,26,0.40
2021,04,12,04,27,0.40
2021,04,12,04,28,0.40
2021,04,12,04,29,0.40
2021,04,12,04,30,0.40
2021,04,12,04,31,0.40
2021,04,12,04,32,0.40
2021,04,12,04,33,0.40
2021,04,12,04,34,0.40
2021,04,12,04,35,0.40
2021,04,12,04,36,0.40
2021,04,12,04,37,0.30
2021,04,12,04,38,0.30
2021,04,12,04,39,0.30
2021,04,12,04,40,0.30
2021,04,12,04,41,0.30
2021,04,12,04,42,0.30
2021,04,12,04,43,0.30
2021,04,12,04,44,0.30
2021,04,12,04,45,0.30
2021,04,12,04,46,0.30
2021,04,12,04,47,0.30
2021,04,12,04,48,0.30
2021,04,12,04,49,0.30
2021,04,12,04,50,0.30
2021,04,12,04,51,0.30
2021,04,12,04,52,0.30
2021,04,12,04,53,0.20
2021,04,12,04,54,0.20
2021,04,12,04,55,0.20
2021,04,12,04,56,0.20
2021,04,12,04,57,0.20
2021,04,12,04,58,0.10
2021,04,12,04,59,0.10
2021,04,12,05,00,0.10
2021,04,12,05,01,0.10
2021,04,12,05,02,0.10
2021,04,12,05,03,0.00
2021,04,12,05,04,0.00
2021,04,12,05,05,0.00
2021,04,12,05,06,0.00
2021,04,12,05,07,0.00
2021,04,12,05,08,0.10
2021,04,12,05,09,0.10
2021,04,12,05,10,0.10
2021,04,12,05,11,0.10
2021,04,12,05,12,0.10
2021,04,12,05,13,0.10
2021,04,12,05,14,0.10
2021,04,12,05,15,0.10
2021,04,12,05,16,0.10
2021,04,12,05,17,0.10
2021,04,12,05,18,0.10
2021,04,12,05,19,0.10
2021,04,12,05,20,0.10
2021,04,12,05,21,0.10
2021,04,12,05,22,0.10
2021,04,12,05,23,0.10
2021,04,12,05,24,0.10
2021,04,12,05,25,0.10
2021,04,12,05,26,0.00
2021,04,12,05,27,0.00
2021,04,12,05,28,0.00
2021,04,12,05,29,0.00
2021,04,12,05,30,0.00
2021,04,12,05,31,-0.10
2021,04,12,05,32,-0.10
2021,04,12,05,33,-0.10
2021,04,12,05,34,-0.10
2021,04,12,05,35,-0.10
2021,04,12,05,36,-0.10
2021,04,12,05,37,-0.10
2021,04,12,05,38,-0.10
2021,04,12,05,39,-0.10
2021,04,12,05,40,-0.20
2021,04,12,05,41,-0.20
2021,04,12,05,42,-0.20
2021,04,12,05,43,-0.20
2021,04,12,05,44,-0.20
2021,04,12,05,45,-0.20
2021,04,12,05,46,-0.20
2021,04,12,05,47,-0.20
2021,04,12,05,48,-0.30
2021,04,12,05,49,-0.30
2021,04,12,05,50,-0.30
2021,04,12,05,51,-0.30
2021,04,12,05,52,-0.30
2021,04,12,05,53,-0.20
2021,04,12,05,54,-0.20
2021,04,12,05,55,-0.30
2021,04,12,05,56,-0.30
2021,04,12,05,57,-0.30
2021,04,12,05,58,-0.30
2021,04,12,05,59,-0.30
2021,04,12,06,00,-0.30
2021,04,12,06,01,-0.30
2021,04,12,06,02,-0.30
2021,04,12,06,03,-0.30
2021,04,12,06,04,-0.30
2021,04,12,06,05,-0.40
2021,04,12,06,06,-0.40
2021,04,12,06,07,-0.40
2021,04,12,06,08,-0.40
2021,04,12,06,09,-0.40
2021,04,12,06,10,-0.40
2021,04,12,06,11,-0.30
2021,04,12,06,12,-0.30
2021,04,12,06,13,-0.30
2021,04,12,06,14,-0.30
2021,04,12,06,15,-0.40
2021,04,12,06,16,-0.40
2021,04,12,06,17,-0.40
2021,04,12,06,18,-0.40
2021,04,12,06,19,-0.40
2021,04,12,06,20,-0.40
2021,04,12,06,21,-0.40
2021,04,12,06,22,-0.40
2021,04,12,06,23,-0.50
2021,04,12,06,24,-0.50
2021,04,12,06,25,-0.50
2021,04,12,06,26,-0.50
2021,04,12,06,27,-0.50
2021,04,12,06,28,-0.50
2021,04,12,06,29,-0.60
2021,04,12,06,30,-0.60
2021,04,12,06,31,-0.60
2021,04,12,06,32,-0.60
2021,04,12,06,33,-0.60
2021,04,12,06,34,-0.50
2021,04,12,06,35,-0.50
2021,04,12,06,36,-0.50
2021,04,12,06,37,-0.50
2021,04,12,06,38,-0.50
2021,04,12,06,39,-0.50
2021,04,12,06,40,-0.50
2021,04,12,06,41,-0.50
2021,04,12,06,42,-0.50
2021,04,12,06,43,-0.50
2021,04,12,06,44,-0.50
2021,04,12,06,45,-0.40
2021,04,12,06,46,-0.40
2021,04,12,06,47,-0.40
2021,04,12,06,48,-0.40
2021,04,12,06,49,-0.40
2021,04,12,06,50,-0.40
2021,04,12,06,51,-0.40
2021,04,12,06,52,-0.30
2021,04,12,06,53,-0.30
2021,04,12,06,54,-0.30
2021,04,12,06,55,-0.30
2021,04,12,06,56,-0.30
2021,04,12,06,57,-0.30
2021,04,12,06,58,-0.30
2021,04,12,06,59,-0.30
2021,04,12,07,00,-0.30
2021,04,12,07,01,-0.20
2021,04,12,07,02,-0.20
2021,04,12,07,03,-0.20
2021,04,12,07,04,-0.20
2021,04,12,07,05,-0.20
2021,04,12,07,06,-0.20
2021,04,12,07,07,-0.20
2021,04,12,07,08,-0.20
2021,04,12,07,09,-0.20
2021,04,12,07,10,-0.20
2021,04,12,07,11,-0.10
2021,04,12,07,12,-0.10
2021,04,12,07,13,-0.10
2021,04,12,07,14,-0.10
2021,04,12,07,15,-0.10
2021,04,12,07,16,-0.10
2021,04,12,07,17,-0.10
2021,04,12,07,18,0.00
2021,04,12,07,19,0.00
2021,04,12,07,20,0.10
2021,04,12,07,21,0.20
2021,04,12,07,22,0.20
2021,04,12,07,23,0.20
2021,04,12,07,24,0.30
2021,04,12,07,25,0.30
2021,04,12,07,26,0.40
2021,04,12,07,27,0.40
2021,04,12,07,28,0.50
2021,04,12,07,29,0.50
2021,04,12,07,30,0.50
2021,04,12,07,31,0.60
2021,04,12,07,32,0.60
2021,04,12,07,33,0.60
2021,04,12,07,34,0.60
2021,04,12,07,35,0.60
2021,04,12,07,36,0.70
2021,04,12,07,37,0.70
2021,04,12,07,38,0.70
2021,04,12,07,39,0.80
2021,04,12,07,40,0.80
2021,04,12,07,41,0.90
2021,04,12,07,42,0.90
2021,04,12,07,43,1.00
2021,04,12,07,44,1.00
2021,04,12,07,45,1.10
2021,04,12,07,46,1.10
2021,04,12,07,47,1.20
2021,04,12,07,48,1.20
2021,04,12,07,49,1.30
2021,04,12,07,50,1.30
2021,04,12,07,51,1.30
2021,04,12,07,52,1.40
2021,04,12,07,53,1.40
2021,04,12,07,54,1.40
2021,04,12,07,55,1.40
2021,04,12,07,56,1.50
2021,04,12,07,57,1.60
2021,04,12,07,58,1.60
2021,04,12,07,59,1.70
2021,04,12,08,00,1.70
2021,04,12,08,01,1.80
2021,04,12,08,02,1.80
2021,04,12,08,03,1.90
2021,04,12,08,04,1.90
2021,04,12,08,05,2.00
2021,04,12,08,06,2.00
2021,04,12,08,07,2.10
2021,04,12,08,08,2.10
2021,04,12,08,09,2.20
2021,04,12,08,10,2.20
2021,04,12,08,11,2.30
2021,04,12,08,12,2.40
2021,04,12,08,13,2.40
2021,04,12,08,14,2.50
2021,04,12,08,15,2.60
2021,04,12,08,16,2.70
2021,04,12,08,17,2.80
2021,04,12,08,18,2.80
2021,04,12,08,19,2.90
2021,04,12,08,20,3.00
2021,04,12,08,21,3.10
2021,04,12,08,22,3.20
2021,04,12,08,23,3.30
2021,04,12,08,24,3.40
2021,04,12,08,25,3.50
2021,04,12,08,26,3.60
2021,04,12,08,27,3.70
2021,04,12,08,28,3.80
2021,04,12,08,29,3.90
2021,04,12,08,30,4.00
2021,04,12,08,31,4.10
2021,04,12,08,32,4.20
2021,04,12,08,33,4.30
2021,04,12,08,34,4.40
2021,04,12,08,35,4.50
2021,04,12,08,36,4.60
2021,04,12,08,37,4.60
2021,04,12,08,38,4.70
2021,04,12,08,39,4.80
2021,04,12,08,40,4.80
2021,04,12,08,41,4.90
2021,04,12,08,42,4.90
2021,04,12,08,43,5.00
2021,04,12,08,44,5.00
2021,04,12,08,45,5.10
2021,04,12,08,46,5.10
2021,04,12,08,47,5.20
2021,04,12,08,48,5.30
2021,04,12,08,49,5.40
2021,04,12,08,50,5.40
2021,04,12,08,51,5.50
2021,04,12,08,52,5.60
2021,04,12,08,53,5.60
2021,04,12,08,54,5.70
2021,04,12,08,55,5.70
2021,04,12,08,56,5.80
2021,04,12,08,57,5.80
2021,04,12,08,58,5.90
2021,04,12,08,59,6.00
2021,04,12,09,00,6.00
2021,04,12,09,01,6.10
2021,04,12,09,02,6.10
2021,04,12,09,03,6.10
2021,04,12,09,04,6.20
2021,04,12,09,05,6.20
2021,04,12,09,06,6.20
2021,04,12,09,07,6.20
2021,04,12,09,08,6.20
2021,04,12,09,09,6.30
2021,04,12,09,10,6.30
2021,04,12,09,11,6.30
2021,04,12,09,12,6.40
2021,04,12,09,13,6.40
2021,04,12,09,14,6.50
2021,04,12,09,15,6.50
2021,04,12,09,16,6.60
2021,04,12,09,17,6.60
2021,04,12,09,18,6.70
2021,04,12,09,19,6.70
2021,04,12,09,20,6.70
2021,04,12,09,21,6.70
2021,04,12,09,22,6.70
2021,04,12,09,23,6.70
2021,04,12,09,24,6.70
2021,04,12,09,25,6.70
2021,04,12,09,26,6.60
2021,04,12,09,27,6.60
2021,04,12,09,28,6.70
2021,04,12,09,29,6.70
2021,04,12,09,30,6.70
2021,04,12,09,31,6.80
2021,04,12,09,32,6.80
2021,04,12,09,33,6.80
2021,04,12,09,34,6.90
2021,04,12,09,35,6.90
2021,04,12,09,36,7.00
2021,04,12,09,37,7.00
2021,04,12,09,38,7.10
2021,04,12,09,39,7.20
2021,04,12,09,40,7.20
2021,04,12,09,41,7.30
2021,04,12,09,42,7.40
2021,04,12,09,43,7.40
2021,04,12,09,44,7.40
2021,04,12,09,45,7.40
2021,04,12,09,46,7.50
2021,04,12,09,47,7.50
2021,04,12,09,48,7.60
2021,04,12,09,49,7.70
2021,04,12,09,50,7.70
2021,04,12,09,51,7.70
2021,04,12,09,52,7.70
2021,04,12,09,53,7.80
2021,04,12,09,54,7.80
2021,04,12,09,55,7.80
2021,04,12,09,56,7.80
2021,04,12,09,57,7.80
2021,04,12,09,58,7.90
2021,04,12,09,59,7.90
2021,04,12,10,00,7.90
2021,04,12,10,01,7.90
2021,04,12,10,02,8.00
2021,04,12,10,03,8.10
2021,04,12,10,04,8.10
2021,04,12,10,05,8.30
2021,04,12,10,06,8.30
2021,04,12,10,07,8.40
2021,04,12,10,08,8.50
2021,04,12,10,09,8.60
2021,04,12,10,10,8.60
2021,04,12,10,11,8.60
2021,04,12,10,12,8.60
2021,04,12,10,13,8.60
2021,04,12,10,14,8.60
2021,04,12,10,15,8.60
2021,04,12,10,16,8.50
2021,04,12,10,17,8.50
2021,04,12,10,18,8.50
2021,04,12,10,19,8.60
2021,04,12,10,20,8.60
2021,04,12,10,21,8.60
2021,04,12,10,22,8.70
2021,04,12,10,23,8.70
2021,04,12,10,24,8.70
2021,04,12,10,25,8.70
2021,04,12,10,26,8.70
2021,04,12,10,27,8.60
2021,04,12,10,28,8.60
2021,04,12,10,29,8.70
2021,04,12,10,30,8.70
2021,04,12,10,31,8.70
2021,04,12,10,32,8.70
2021,04,12,10,33,8.70
2021,04,12,10,34,8.80
2021,04,12,10,35,8.80
2021,04,12,10,36,8.80
2021,04,12,10,37,8.90
2021,04,12,10,38,8.90
2021,04,12,10,39,8.90
2021,04,12,10,40,9.00
2021,04,12,10,41,9.00
2021,04,12,10,42,9.00
2021,04,12,10,43,9.00
2021,04,12,10,44,9.00
2021,04,12,10,45,9.00
2021,04,12,10,46,9.00
2021,04,12,10,47,9.10
2021,04,12,10,48,9.10
2021,04,12,10,49,9.10
2021,04,12,10,50,9.10
2021,04,12,10,51,9.10
2021,04,12,10,52,9.20
2021,04,12,10,53,9.20
2021,04,12,10,54,9.20
2021,04,12,10,55,9.30
2021,04,12,10,56,9.30
2021,04,12,10,57,9.30
2021,04,12,10,58,9.30
2021,04,12,10,59,9.30
2021,04,12,11,00,9.30
2021,04,12,11,01,9.40
2021,04,12,11,02,9.40
2021,04,12,11,03,9.50
2021,04,12,11,04,9.50
2021,04,12,11,05,9.60
2021,04,12,11,06,9.60
2021,04,12,11,07,9.60
2021,04,12,11,08,9.50
2021,04,12,11,09,9.50
2021,04,12,11,10,9.50
2021,04,12,11,11,9.60
2021,04,12,11,12,9.60
2021,04,12,11,13,9.70
2021,04,12,11,14,9.80
2021,04,12,11,15,9.80
2021,04,12,11,16,9.80
2021,04,12,11,17,9.80
2021,04,12,11,18,9.80
2021,04,12,11,19,9.90
2021,04,12,11,20,9.90
2021,04,12,11,21,9.90
2021,04,12,11,22,10.00
2021,04,12,11,23,10.00
2021,04,12,11,24,10.10
2021,04,12,11,25,10.10
2021,04,12,11,26,10.10
2021,04,12,11,27,10.20
2021,04,12,11,28,10.20
2021,04,12,11,29,10.30
2021,04,12,11,30,10.30
2021,04,12,11,31,10.30
2021,04,12,11,32,10.30
2021,04,12,11,33,10.30
2021,04,12,11,34,10.30
2021,04,12,11,35,10.30
2021,04,12,11,36,10.30
2021,04,12,11,37,10.30
2021,04,12,11,38,10.40
2021,04,12,11,39,10.40
2021,04,12,11,40,10.50
2021,04,12,11,41,10.70
2021,04,12,11,42,10.80
2021,04,12,11,43,10.90
2021,04,12,11,44,10.90
2021,04,12,11,45,10.90
2021,04,12,11,46,10.90
2021,04,12,11,47,10.90
2021,04,12,11,48,10.90
2021,04,12,11,49,10.90
2021,04,12,11,50,10.90
2021,04,12,11,51,11.00
2021,04,12,11,52,11.00
2021,04,12,11,53,11.00
2021,04,12,11,54,11.00
2021,04,12,11,55,10.90
2021,04,12,11,56,10.90
2021,04,12,11,57,11.00
2021,04,12,11,58,11.00
2021,04,12,11,59,11.10
2021,04,12,12,00,11.10
2021,04,12,12,01,11.10
2021,04,12,12,02,11.20
2021,04,12,12,03,11.20
2021,04,12,12,04,11.30
2021,04,12,12,05,11.30
2021,04,12,12,06,11.40
2021,04,12,12,07,11.40
2021,04,12,12,08,11.40
2021,04,12,12,09,11.50
2021,04,12,12,10,11.50
2021,04,12,12,11,11.60
2021,04,12,12,12,11.60
2021,04,12,12,13,11.60
2021,04,12,12,14,11.60
2021,04,12,12,15,11.60
2021,04,12,12,16,11.60
2021,04,12,12,17,11.60
2021,04,12,12,18,11.60
2021,04,12,12,19,11.60
2021,04,12,12,20,11.60
2021,04,12,12,21,11.60
2021,04,12,12,22,11.60
2021,04,12,12,23,11.60
2021,04,12,12,24,11.70
2021,04,12,12,25,11.70
2021,04,12,12,26,11.80
2021,04,12,12,27,11.80
2021,04,12,12,28,11.80
2021,04,12,12,29,11.80
2021,04,12,12,30,11.90
2021,04,12,12,31,11.90
2021,04,12,12,32,12.00
2021,04,12,12,33,12.00
2021,04,12,12,34,12.00
2021,04,12,12,35,12.10
2021,04,12,12,36,12.10
2021,04,12,12,37,12.10
2021,04,12,12,38,12.10
2021,04,12,12,39,12.20
2021,04,12,12,40,12.20
2021,04,12,12,41,12.20
2021,04,12,12,42,12.20
2021,04,12,12,43,12.10
2021,04,12,12,44,12.10
2021,04,12,12,45,12.10
2021,04,12,12,46,12.20
2021,04,12,12,47,12.20
2021,04,12,12,48,12.20
2021,04,12,12,49,12.20
2021,04,12,12,50,12.20
2021,04,12,12,51,12.30
2021,04,12,12,52,12.30
2021,04,12,12,53,12.30
2021,04,12,12,54,12.40
2021,04,12,12,55,12.40
2021,04,12,12,56,12.50
2021,04,12,12,57,12.60
2021,04,12,12,58,12.60
2021,04,12,12,59,12.60
2021,04,12,13,00,12.60
2021,04,12,13,01,12.50
2021,04,12,13,02,12.50
2021,04,12,13,03,12.40
2021,04,12,13,04,12.40
2021,04,12,13,05,12.40
2021,04,12,13,06,12.50
2021,04,12,13,07,12.50
2021,04,12,13,08,12.50
2021,04,12,13,09,12.60
2021,04,12,13,10,12.60
2021,04,12,13,11,12.60
2021,04,12,13,12,12.60
2021,04,12,13,13,12.60
2021,04,12,13,14,12.70
2021,04,12,13,15,12.70
2021,04,12,13,16,12.70
2021,04,12,13,17,12.80
2021,04,12,13,18,12.80
2021,04,12,13,19,12.80
2021,04,12,13,20,12.80
2021,04,12,13,21,12.80
2021,04,12,13,22,12.90
2021,04,12,13,23,12.90
2021,04,12,13,24,12.80
2021,04,12,13,25,12.80
2021,04,12,13,26,12.80
2021,04,12,13,27,12.80
2021,04,12,13,28,12.80
2021,04,12,13,29,12.80
2021,04,12,13,30,12.80
2021,04,12,13,31,12.90
2021,04,12,13,32,12.90
2021,04,12,13,33,13.00
2021,04,12,13,34,13.00
2021,04,12,13,35,13.10
2021,04,12,13,36,13.10
2021,04,12,13,37,13.10
2021,04,12,13,38,13.10
2021,04,12,13,39,13.10
2021,04,12,13,40,13.20
2021,04,12,13,41,13.20
2021,04,12,13,42,13.20
2021,04,12,13,43,13.20
2021,04,12,13,44,13.20
2021,04,12,13,45,13.20
2021,04,12,13,46,13.30
2021,04,12,13,47,13.40
2021,04,12,13,48,13.40
2021,04,12,13,49,13.50
2021,04,12,13,50,13.60
2021,04,12,13,51,13.60
2021,04,12,13,52,13.60
2021,04,12,13,53,13.50
2021,04,12,13,54,13.50
2021,04,12,13,55,13.50
2021,04,12,13,56,13.50
2021,04,12,13,57,13.50
2021,04,12,13,58,13.50
2021,04,12,13,59,13.60
2021,04,12,14,00,13.60
2021,04,12,14,01,13.60
2021,04,12,14,02,13.70
2021,04,12,14,03,13.70
2021,04,12,14,04,13.80
2021,04,12,14,05,13.80
2021,04,12,14,06,13.80
2021,04,12,14,07,13.80
2021,04,12,14,08,13.80
2021,04,12,14,09,13.80
2021,04,12,14,10,13.80
2021,04,12,14,11,13.80
2021,04,12,14,12,13.80
2021,04,12,14,13,13.80
2021,04,12,14,14,13.90
2021,04,12,14,15,13.90
2021,04,12,14,16,14.10
2021,04,12,14,17,14.30
2021,04,12,14,18,14.40
2021,04,12,14,19,14.40
2021,04,12,14,20,14.40
2021,04,12,14,21,14.40
2021,04,12,14,22,14.30
2021,04,12,14,23,14.20
2021,04,12,14,24,14.20
2021,04,12,14,25,14.20
2021,04,12,14,26,14.20
2021,04,12,14,27,14.20
2021,04,12,14,28,14.20
2021,04,12,14,29,14.20
2021,04,12,14,30,14.20
2021,04,12,14,31,14.30
2021,04,12,14,32,14.40
2021,04,12,14,33,14.60
2021,04,12,14,34,14.70
2021,04,12,14,35,14.80
2021,04,12,14,36,14.90
2021,04,12,14,37,15.00
2021,04,12,14,38,15.00
2021,04,12,14,39,14.90
2021,04,12,14,40,14.90
2021,04,12,14,41,14.90
2021,04,12,14,42,14.90
2021,04,12,14,43,14.90
2021,04,12,14,44,14.90
2021,04,12,14,45,14.80
2021,04,12,14,46,14.70
2021,04,12,14,47,14.70
2021,04,12,14,48,14.60
2021,04,12,14,49,14.60
2021,04,12,14,50,14.60
2021,04,12,14,51,14.70
2021,04,12,14,52,14.70
2021,04,12,14,53,14.70
2021,04,12,14,54,14.70
2021,04,12,14,55,14.80
2021,04,12,14,56,14.80
2021,04,12,14,57,14.90
2021,04,12,14,58,15.00
2021,04,12,14,59,15.10
2021,04,12,15,00,15.10
2021,04,12,15,01,15.20
2021,04,12,15,02,15.30
2021,04,12,15,03,15.30
2021,04,12,15,04,15.30
2021,04,12,15,05,15.20
2021,04,12,15,06,15.10
2021,04,12,15,07,15.10
2021,04,12,15,08,15.10
2021,04,12,15,09,15.10
2021,04,12,15,10,15.20
2021,04,12,15,11,15.20
2021,04,12,15,12,15.10
2021,04,12,15,13,15.10
2021,04,12,15,14,15.10
2021,04,12,15,15,15.00
2021,04,12,15,16,14.90
2021,04,12,15,17,14.90
2021,04,12,15,18,14.80
2021,04,12,15,19,14.80
2021,04,12,15,20,14.80
2021,04,12,15,21,14.80
2021,04,12,15,22,14.70
2021,04,12,15,23,14.70
2021,04,12,15,24,14.80
2021,04,12,15,25,14.80
2021,04,12,15,26,14.80
2021,04,12,15,27,14.80
2021,04,12,15,28,14.80
2021,04,12,15,29,14.90
2021,04,12,15,30,15.00
2021,04,12,15,31,15.00
2021,04,12,15,32,15.00
2021,04,12,15,33,14.90
2021,04,12,15,34,14.90
2021,04,12,15,35,14.90
2021,04,12,15,36,15.00
2021,04,12,15,37,15.00
2021,04,12,15,38,15.00
2021,04,12,15,39,15.00
2021,04,12,15,40,15.10
2021,04,12,15,41,15.00
2021,04,12,15,42,15.00
2021,04,12,15,43,14.90
2021,04,12,15,44,14.90
2021,04,12,15,45,14.90
2021,04,12,15,46,14.90
2021,04,12,15,47,14.90
2021,04,12,15,48,14.90
2021,04,12,15,49,14.90
2021,04,12,15,50,14.90
2021,04,12,15,51,14.90
2021,04,12,15,52,14.90
2021,04,12,15,53,14.80
2021,04,12,15,54,14.90
2021,04,12,15,55,14.90
2021,04,12,15,56,15.00
2021,04,12,15,57,15.10
2021,04,12,15,58,15.20
2021,04,12,15,59,15.30
2021,04,12,16,00,15.40
2021,04,12,16,01,15.40
2021,04,12,16,02,15.50
2021,04,12,16,03,15.50
2021,04,12,16,04,15.60
2021,04,12,16,05,15.60
2021,04,12,16,06,15.60
2021,04,12,16,07,15.70
2021,04,12,16,08,15.70
2021,04,12,16,09,15.70
2021,04,12,16,10,15.70
2021,04,12,16,11,15.70
2021,04,12,16,12,15.70
2021,04,12,16,13,15.70
2021,04,12,16,14,15.70
2021,04,12,16,15,15.70
2021,04,12,16,16,15.70
2021,04,12,16,17,15.70
2021,04,12,16,18,15.60
2021,04,12,16,19,15.50
2021,04,12,16,20,15.50
2021,04,12,16,21,15.40
2021,04,12,16,22,15.30
2021,04,12,16,23,15.20
2021,04,12,16,24,15.30
2021,04,12,16,25,15.30
2021,04,12,16,26,15.40
2021,04,12,16,27,15.40
2021,04,12,16,28,15.40
2021,04,12,16,29,15.40
2021,04,12,16,30,15.40
2021,04,12,16,31,15.40
2021,04,12,16,32,15.40
2021,04,12,16,33,15.40
2021,04,12,16,34,15.40
2021,04,12,16,35,15.40
2021,04,12,16,36,15.40
2021,04,12,16,37,15.40
2021,04,12,16,38,15.50
2021,04,12,16,39,15.50
2021,04,12,16,40,15.60
2021,04,12,16,41,15.60
2021,04,12,16,42,15.60
2021,04,12,16,43,15.60
2021,04,12,16,44,15.70
2021,04,12,16,45,15.70
2021,04,12,16,46,15.70
2021,04,12,16,47,15.70
2021,04,12,16,48,15.70
2021,04,12,16,49,15.60
2021,04,12,16,50,15.60
2021,04,12,16,51,15.60
2021,04,12,16,52,15.60
2021,04,12,16,53,15.60
2021,04,12,16,54,15.60
2021,04,12,16,55,15.60
2021,04,12,16,56,15.60
2021,04,12,16,57,15.60
2021,04,12,16,58,15.70
2021,04,12,16,59,15.70
2021,04,12,17,00,15.70
2021,04,12,17,01,15.70
2021,04,12,17,02,15.70
2021,04,12,17,03,15.70
2021,04,12,17,04,15.70
2021,04,12,17,05,15.80
2021,04,12,17,06,15.80
2021,04,12,17,07,15.70
2021,04,12,17,08,15.70
2021,04,12,17,09,15.70
2021,04,12,17,10,15.70
2021,04,12,17,11,15.70
2021,04,12,17,12,15.70
2021,04,12,17,13,15.70
2021,04,12,17,14,15.80
2021,04,12,17,15,15.80
2021,04,12,17,16,15.80
2021,04,12,17,17,15.80
2021,04,12,17,18,15.80
2021,04,12,17,19,15.90
2021,04,12,17,20,15.90
2021,04,12,17,21,15.90
2021,04,12,17,22,15.90
2021,04,12,17,23,15.90
2021,04,12,17,24,15.80
2021,04,12,17,25,15.80
2021,04,12,17,26,15.70
2021,04,12,17,27,15.60
2021,04,12,17,28,15.50
2021,04,12,17,29,15.40
2021,04,12,17,30,15.40
2021,04,12,17,31,15.40
2021,04,12,17,32,15.40
2021,04,12,17,33,15.40
2021,04,12,17,34,15.40
2021,04,12,17,35,15.50
2021,04,12,17,36,15.50
2021,04,12,17,37,15.50
2021,04,12,17,38,15.50
2021,04,12,17,39,15.40
2021,04,12,17,40,15.50
2021,04,12,17,41,15.40
2021,04,12,17,42,15.40
2021,04,12,17,43,15.40
2021,04,12,17,44,15.40